Flag for U.S.A. Weather past 2 weeks in Pomona, California, U.S.A.

Now
71 °F

Sunny.


Feels Like: 77 °F
Forecast: 58 / 77 °F
Wind: No wind

Location: Chino Airport

Current Time: May 27, 2015 at 12:16:43 PM

Latest Report: May 27, 2015 at 11:53 AM


Visibility: 8 mi

Pressure: 29.99 "Hg

Humidity: 53%

Dew point: 53 °F

Location of PomonaLocation

Historic Weather in Pomona — Graph

°F

Pomona temperature yesterday

Maximum temperature yesterday: 78 °F (at 1:53 PM)
Minimum temperature yesterday: 59 °F (at 11:53 PM)
Average temperature yesterday: 66 °F

Past Weeks' High & Low Weather Summary

 TemperatureHumidityPressure
High78 °F (May 12, 2:53 PM)97% (May 15, 4:53 AM)30.10 "Hg (May 15, 4:53 AM)
Low50 °F (May 16, 5:53 AM)35% (May 13, 1:53 PM)29.82 "Hg (May 15, 4:53 PM)
Average62 °F68%29.97 "Hg
* Reported May 12 10:53 AM — May 27 10:53 AM, Pomona, Weather by CustomWeather, © 2015

Note: Actual official high and low records may vary slightly from our data, if they occured in-between our weather recording intervals... More about our weather records

Advertising

Pomona weather history for previous 24 hours

 ConditionsComfort  
Time TempWeatherWind HumidityBarometerVisibility
10:53 AM
Wed, May 27
68 °FPartly sunny.5 mph59%30.00 "Hg8 mi
9:53 AM64 °FOvercast.6 mph68%30.00 "Hg6 mi
8:53 AM63 °FOvercast.3 mph70%29.99 "Hg6 mi
7:53 AM62 °FOvercast.5 mph75%29.99 "Hg5 mi
6:53 AM62 °FOvercast.3 mph78%29.98 "Hg4 mi
5:53 AM61 °FOvercast.No wind78%29.97 "Hg7 mi
4:53 AM61 °FOvercast.6 mph78%29.97 "Hg7 mi
3:53 AM61 °FOvercast.7 mph78%29.97 "Hg7 mi
2:53 AM61 °FOvercast.6 mph78%29.97 "Hg7 mi
1:53 AM61 °FOvercast.6 mph81%29.98 "Hg8 mi
12:53 AM61 °FOvercast.7 mph78%29.99 "Hg6 mi
11:53 PM
Tue, May 26
59 °FPassing clouds.6 mph84%29.99 "Hg6 mi
10:53 PM60 °FClear.5 mph80%29.99 "Hg7 mi
9:53 PM61 °FClear.8 mph78%29.99 "Hg8 mi
8:53 PM62 °FPassing clouds.12 mph75%29.98 "Hg10 mi
7:53 PM64 °FPartly sunny.14 mph70%29.96 "Hg10 mi
6:53 PM69 °FPartly sunny.12 mph61%29.93 "Hg10 mi
5:53 PM72 °FPartly sunny.18 mph55%29.93 "Hg10 mi
4:53 PM76 °FPartly sunny.15 mph47%29.92 "Hg10 mi
3:53 PM78 °FPartly sunny.10 mph40%29.93 "Hg10 mi
2:53 PM77 °FPartly sunny.8 mph40%29.94 "Hg10 mi
1:53 PM78 °FPartly sunny.12 mph42%29.96 "Hg10 mi
12:53 PM75 °FPartly sunny.N/A50%29.97 "Hg10 mi
Weather by CustomWeather, © 2015

See weather overviewHow to use our weather pages